Flag for Belgium Weather past 2 weeks in Brussels, Belgium

Now
63 °F

Mild.


Feels Like: 63 °F
Forecast: 55 / 63 °F
Wind: 2 mph from West

Location: Uccle

Current Time: Sep 20, 2014 at 8:20:01 AM

Latest Report: Sep 20, 2014 at 7:00 AM


Visibility: N/A

Pressure: 29.93 "Hg

Humidity: 92%

Dew point: 61 °F

Location of BrusselsLocation

Historic Weather in Brussels — Graph

°F

Brussels temperature yesterday

Maximum temperature yesterday: 78 °F (at 4:00 PM)
Minimum temperature yesterday: 59 °F (at 7:00 AM)
Average temperature yesterday: 67 °F

Past Weeks' High & Low Weather Summary

 TemperatureHumidityPressure
High78 °F (Sep 19, 4:00 PM)95% (Sep 7, 9:00 AM)30.28 "Hg (Sep 7, 9:00 AM)
Low51 °F (Sep 12, 8:00 AM)48% (Sep 17, 5:00 PM)29.79 "Hg (Sep 18, 5:00 PM)
Average63 °F77%30.03 "Hg
* Reported Sep 5 10:00 AM — Sep 20 7:00 AM, Brussels, Weather by CustomWeather, © 2014

Note: Actual official high and low records may vary slightly from our data, if they occured in-between our weather recording intervals... More about our weather records

Advertising

Brussels weather history for previous 24 hours

 ConditionsComfort  
Time TempWeatherWind HumidityBarometerVisibility
7:00 AM
Sep 20
63 °FMild.2 mph92%29.93 "HgN/A
6:00 AM63 °FMild.2 mph92%29.93 "HgN/A
5:00 AM63 °FMild.2 mph92%29.93 "HgN/A
4:00 AM62 °FCool.2 mph92%29.92 "HgN/A
3:00 AM62 °FMild.1 mph91%29.92 "HgN/A
2:00 AM63 °FMild.2 mph91%29.92 "HgN/A
1:00 AM64 °FMild.2 mph90%29.92 "HgN/A
12:00 AM65 °FMild.1 mph86%29.92 "HgN/A
11:00 PM
Sep 19
66 °FMild.2 mph82%29.92 "HgN/A
10:00 PM67 °FMild.2 mph82%29.91 "HgN/A
9:00 PM68 °FMild.2 mph80%29.90 "HgN/A
8:00 PM71 °FMild.1 mph70%29.88 "HgN/A
7:00 PM75 °FMild.2 mph58%29.86 "HgN/A
6:00 PM77 °FWarm.3 mph54%29.86 "HgN/A
5:00 PM77 °FMild.3 mph57%29.86 "HgN/A
4:00 PM78 °FWarm.2 mph53%29.87 "HgN/A
3:00 PM77 °FMild.3 mph58%29.87 "HgN/A
2:00 PM76 °FMild.2 mph61%29.87 "HgN/A
1:00 PM73 °FMild.1 mph66%29.87 "HgN/A
12:00 PM70 °FMild.2 mph72%29.87 "HgN/A
11:00 AM68 °FMild.3 mph78%29.88 "HgN/A
10:00 AM66 °FMild.2 mph91%29.88 "HgN/A
9:00 AM60 °FCool.2 mph95%29.87 "HgN/A
8:00 AM59 °FCool.2 mph95%29.86 "HgN/A
Weather by CustomWeather, © 2014

See weather overviewHow to use our weather pages